| time (UTC) | temp F | wind direction | speed knots | gust knots | rain 1hr in | rain 24hr in | rain mn in | humidity % | barometer mb |
| 20260507015243 | 48 | 354 | 0.0 | 2.6 | 0.00 | 0.00 | 0.00 | 54 | 1017.5 |
| 20260507014739 | 48 | 17 | 0.9 | 1.7 | 0.00 | 0.00 | 0.00 | 57 | 1017.4 |
| 20260507014236 | 48 | 328 | 2.6 | 3.5 | 0.00 | 0.00 | 0.00 | 56 | 1017.3 |
| 20260507013732 | 48 | 38 | 0.9 | 1.7 | 0.00 | 0.00 | 0.00 | 56 | 1017.3 |
| 20260507013230 | 47 | 29 | 0.0 | 1.7 | 0.00 | 0.00 | 0.00 | 61 | 1017.3 |
| 20260507012727 | 48 | 324 | 0.0 | 2.6 | 0.00 | 0.00 | 0.00 | 60 | 1017.1 |
| 20260507012222 | 48 | 339 | 0.0 | 0.9 | 0.00 | 0.00 | 0.00 | 57 | 1017.0 |
| 20260507011720 | 48 | 8 | 1.7 | 1.7 | 0.00 | 0.00 | 0.00 | 60 | 1016.9 |
| 20260507011217 | 49 | 186 | 0.0 | 0.9 | 0.00 | 0.00 | 0.00 | 58 | 1017.0 |
| 20260507010711 | 49 | 91 | 0.0 | 1.7 | 0.00 | 0.00 | 0.00 | 58 | 1017.0 |
| 20260507010207 | 50 | 348 | 0.0 | 1.7 | 0.00 | 0.00 | 0.00 | 57 | 1016.9 |
| 20260507005705 | 50 | 5 | 0.0 | 1.7 | 0.00 | 0.00 | 0.00 | 54 | 1016.9 |
| 20260507005201 | 51 | 250 | 0.0 | 3.5 | 0.00 | 0.00 | 0.00 | 53 | 1017.0 |
| 20260507004658 | 51 | 358 | 0.9 | 4.3 | 0.00 | 0.00 | 0.00 | 53 | 1016.8 |
| 20260507004155 | 52 | 245 | 1.7 | 4.3 | 0.00 | 0.00 | 0.00 | 49 | 1016.9 |
| 20260507003652 | 52 | 43 | 0.9 | 2.6 | 0.00 | 0.00 | 0.00 | 51 | 1016.9 |
| 20260507003152 | 52 | 212 | 0.0 | 1.7 | 0.00 | 0.00 | 0.00 | 52 | 1016.7 |
| 20260507002648 | 53 | 233 | 1.7 | 3.5 | 0.00 | 0.00 | 0.00 | 48 | 1016.9 |
| 20260507002144 | 53 | 225 | 1.7 | 2.6 | 0.00 | 0.00 | 0.00 | 48 | 1016.9 |
| 20260507001641 | 53 | 226 | 1.7 | 3.5 | 0.00 | 0.00 | 0.00 | 47 | 1016.8 |
| 20260507001139 | 53 | 235 | 2.6 | 3.5 | 0.00 | 0.00 | 0.00 | 48 | 1016.8 |
| 20260507000635 | 54 | 231 | 4.3 | 7.0 | 0.00 | 0.00 | 0.00 | 46 | 1016.8 |
| 20260507000130 | 53 | 277 | 0.9 | 4.3 | 0.00 | 0.00 | 0.00 | 47 | 1016.7 |
| 20260506235628 | 53 | 246 | 3.5 | 5.2 | 0.00 | 0.00 | 0.00 | 45 | 1016.9 |
| 20260506235127 | 54 | 243 | 1.7 | 5.2 | 0.00 | 0.00 | 0.00 | 47 | 1016.9 |
| 20260506234625 | 54 | 230 | 2.6 | 5.2 | 0.00 | 0.00 | 0.00 | 45 | 1017.0 |
| 20260506234122 | 54 | 274 | 0.9 | 4.3 | 0.00 | 0.00 | 0.00 | 45 | 1017.0 |
| 20260506233619 | 54 | 233 | 1.7 | 5.2 | 0.00 | 0.00 | 0.00 | 44 | 1016.9 |
| 20260506233116 | 54 | 239 | 1.7 | 4.3 | 0.00 | 0.00 | 0.00 | 48 | 1016.9 |
| 20260506232612 | 55 | 238 | 5.2 | 5.2 | 0.00 | 0.00 | 0.00 | 44 | 1016.8 |
| 20260506232107 | 55 | 235 | 2.6 | 7.0 | 0.00 | 0.00 | 0.00 | 43 | 1016.8 |
| 20260506231605 | 55 | 235 | 5.2 | 5.2 | 0.00 | 0.00 | 0.00 | 43 | 1016.9 |
| 20260506231103 | 56 | 225 | 8.7 | 12.2 | 0.00 | 0.00 | 0.00 | 42 | 1017.1 |
| 20260506230559 | 56 | 240 | 0.9 | 7.0 | 0.00 | 0.00 | 0.00 | 44 | 1016.7 |
| 20260506230056 | 56 | 237 | 2.6 | 7.8 | 0.00 | 0.00 | 0.00 | 44 | 1016.9 |
| 20260506225553 | 57 | 234 | 4.3 | 7.8 | 0.00 | 0.00 | 0.00 | 44 | 1016.8 |
| 20260506225049 | 57 | 224 | 6.1 | 9.6 | 0.00 | 0.00 | 0.00 | 41 | 1016.7 |
| 20260506224546 | 57 | 226 | 5.2 | 5.2 | 0.00 | 0.00 | 0.00 | 44 | 1016.6 |
| 20260506224043 | 56 | 255 | 6.1 | 7.8 | 0.00 | 0.00 | 0.00 | 42 | 1016.5 |
| 20260506223539 | 56 | 282 | 1.7 | 8.7 | 0.00 | 0.00 | 0.00 | 47 | 1016.6 |
| 20260506223036 | 57 | 227 | 4.3 | 6.1 | 0.00 | 0.00 | 0.00 | 42 | 1016.5 |
| 20260506222533 | 57 | 244 | 4.3 | 7.0 | 0.00 | 0.00 | 0.00 | 42 | 1016.5 |
| 20260506222029 | 58 | 222 | 5.2 | 8.7 | 0.00 | 0.00 | 0.00 | 42 | 1016.6 |
| 20260506221526 | 57 | 345 | 1.7 | 1.7 | 0.00 | 0.00 | 0.00 | 48 | 1016.2 |
| 20260506221024 | 57 | 228 | 1.7 | 3.5 | 0.00 | 0.00 | 0.00 | 47 | 1016.5 |
| 20260506220520 | 57 | 232 | 2.6 | 6.1 | 0.00 | 0.00 | 0.00 | 45 | 1016.5 |
| 20260506220016 | 57 | 222 | 2.6 | 7.0 | 0.00 | 0.00 | 0.00 | 45 | 1016.3 |
| 20260506215513 | 57 | 226 | 3.5 | 10.4 | 0.00 | 0.00 | 0.00 | 42 | 1016.3 |
| 20260506215008 | 57 | 232 | 5.2 | 8.7 | 0.00 | 0.00 | 0.00 | 43 | 1016.6 |
| 20260506214506 | 56 | 329 | 0.9 | 5.2 | 0.00 | 0.00 | 0.00 | 48 | 1016.5 |
| 20260506214003 | 56 | 246 | 0.9 | 6.1 | 0.00 | 0.00 | 0.00 | 47 | 1016.5 |
| 20260506213501 | 56 | 328 | 2.6 | 5.2 | 0.00 | 0.00 | 0.00 | 46 | 1016.5 |
| 20260506212957 | 56 | 261 | 3.5 | 9.6 | 0.00 | 0.00 | 0.00 | 44 | 1016.6 |
| 20260506212454 | 57 | 237 | 5.2 | 6.1 | 0.00 | 0.00 | 0.00 | 44 | 1016.6 |
| 20260506211948 | 57 | 242 | 3.5 | 5.2 | 0.00 | 0.00 | 0.00 | 44 | 1016.7 |
| 20260506211445 | 57 | 231 | 1.7 | 6.1 | 0.00 | 0.00 | 0.00 | 49 | 1016.6 |
| 20260506210942 | 57 | 232 | 2.6 | 7.0 | 0.00 | 0.00 | 0.00 | 46 | 1016.6 |
| 20260506210438 | 57 | 242 | 4.3 | 5.2 | 0.00 | 0.00 | 0.00 | 44 | 1016.6 |
| 20260506205936 | 57 | 274 | 1.7 | 4.3 | 0.00 | 0.00 | 0.00 | 45 | 1016.6 |
| 20260506205432 | 57 | 225 | 1.7 | 6.1 | 0.00 | 0.00 | 0.00 | 47 | 1016.6 |
| 20260506204928 | 57 | 160 | 0.9 | 7.8 | 0.00 | 0.00 | 0.00 | 45 | 1016.6 |
| 20260506204426 | 56 | 227 | 4.3 | 4.3 | 0.00 | 0.00 | 0.00 | 46 | 1016.5 |
| 20260506203923 | 56 | 231 | 6.1 | 9.6 | 0.00 | 0.00 | 0.00 | 45 | 1016.8 |
| 20260506203420 | 57 | 265 | 4.3 | 7.8 | 0.00 | 0.00 | 0.00 | 45 | 1016.6 |
| 20260506202917 | 57 | 229 | 2.6 | 7.0 | 0.00 | 0.00 | 0.00 | 46 | 1016.8 |
| 20260506202414 | 57 | 234 | 2.6 | 7.8 | 0.00 | 0.00 | 0.00 | 47 | 1017.0 |
| 20260506201911 | 58 | 223 | 6.1 | 8.7 | 0.00 | 0.00 | 0.00 | 42 | 1017.0 |
| 20260506201409 | 58 | 311 | 0.9 | 11.3 | 0.00 | 0.00 | 0.00 | 44 | 1016.9 |
| 20260506200905 | 60 | 235 | 1.7 | 5.2 | 0.00 | 0.00 | 0.00 | 41 | 1016.7 |
| 20260506200401 | 58 | 252 | 1.7 | 3.5 | 0.00 | 0.00 | 0.00 | 46 | 1016.8 |
| 20260506195857 | 59 | 227 | 5.2 | 9.6 | 0.00 | 0.00 | 0.00 | 44 | 1017.0 |
| 20260506195355 | 59 | 293 | 1.7 | 3.5 | 0.00 | 0.00 | 0.00 | 49 | 1016.8 |
| 20260506194851 | 58 | 229 | 3.5 | 4.3 | 0.00 | 0.00 | 0.00 | 45 | 1016.8 |
| 20260506194348 | 58 | 156 | 1.7 | 8.7 | 0.00 | 0.00 | 0.00 | 52 | 1016.9 |
| 20260506193846 | 59 | 256 | 5.2 | 10.4 | 0.00 | 0.00 | 0.00 | 48 | 1016.9 |
| 20260506193342 | 58 | 21 | 6.1 | 6.1 | 0.00 | 0.00 | 0.00 | 47 | 1016.9 |
| 20260506192839 | 58 | 273 | 0.0 | 4.3 | 0.00 | 0.00 | 0.00 | 48 | 1016.9 |
| 20260506192335 | 58 | 262 | 0.9 | 5.2 | 0.00 | 0.00 | 0.00 | 48 | 1017.0 |
| 20260506191833 | 57 | 252 | 2.6 | 9.6 | 0.00 | 0.00 | 0.00 | 47 | 1017.0 |
| 20260506191329 | 58 | 350 | 3.5 | 7.0 | 0.00 | 0.00 | 0.00 | 48 | 1017.0 |
| 20260506190826 | 58 | 224 | 7.0 | 7.8 | 0.00 | 0.00 | 0.00 | 47 | 1017.1 |
| 20260506190322 | 58 | 267 | 1.7 | 11.3 | 0.00 | 0.00 | 0.00 | 48 | 1017.1 |
| 20260506185819 | 60 | 345 | 3.5 | 6.1 | 0.00 | 0.00 | 0.00 | 48 | 1017.1 |
| 20260506185316 | 57 | 227 | 6.1 | 9.6 | 0.00 | 0.00 | 0.00 | 45 | 1016.9 |
| 20260506184813 | 57 | 228 | 3.5 | 5.2 | 0.00 | 0.00 | 0.00 | 48 | 1017.0 |
| 20260506184311 | 57 | 229 | 5.2 | 5.2 | 0.00 | 0.00 | 0.00 | 46 | 1016.9 |
| 20260506183807 | 57 | 232 | 3.5 | 5.2 | 0.00 | 0.00 | 0.00 | 50 | 1017.0 |
| 20260506183303 | 56 | 227 | 4.3 | 5.2 | 0.00 | 0.00 | 0.00 | 47 | 1017.0 |
| 20260506182800 | 55 | 236 | 5.2 | 5.2 | 0.00 | 0.00 | 0.00 | 49 | 1016.9 |
| 20260506182257 | 57 | 257 | 3.5 | 8.7 | 0.00 | 0.00 | 0.00 | 49 | 1017.0 |
| 20260506181755 | 59 | 231 | 7.0 | 9.6 | 0.00 | 0.00 | 0.00 | 45 | 1016.9 |
| 20260506181252 | 60 | 216 | 5.2 | 7.8 | 0.00 | 0.00 | 0.00 | 41 | 1017.0 |
| 20260506180749 | 57 | 280 | 1.7 | 4.3 | 0.00 | 0.00 | 0.00 | 51 | 1017.0 |
| 20260506180245 | 56 | 241 | 5.2 | 6.1 | 0.00 | 0.00 | 0.00 | 50 | 1016.9 |
| 20260506175742 | 57 | 233 | 2.6 | 7.0 | 0.00 | 0.00 | 0.00 | 50 | 1017.3 |
| 20260506175239 | 58 | 232 | 5.2 | 8.7 | 0.00 | 0.00 | 0.00 | 47 | 1017.2 |
| 20260506174736 | 59 | 253 | 2.6 | 5.2 | 0.00 | 0.00 | 0.00 | 54 | 1017.2 |
| 20260506174233 | 60 | 238 | 1.7 | 3.5 | 0.00 | 0.00 | 0.00 | 52 | 1017.2 |
| 20260506173731 | 59 | 253 | 1.7 | 4.3 | 0.00 | 0.00 | 0.00 | 46 | 1017.1 |
| 20260506173222 | 59 | 332 | 3.5 | 3.5 | 0.00 | 0.00 | 0.00 | 52 | 1017.3 |
| 20260506172719 | 58 | 60 | 0.9 | 7.8 | 0.00 | 0.00 | 0.00 | 49 | 1017.1 |
| 20260506172215 | 58 | 283 | 1.7 | 6.1 | 0.00 | 0.00 | 0.00 | 44 | 1017.3 |
| 20260506171713 | 59 | 328 | 2.6 | 3.5 | 0.00 | 0.00 | 0.00 | 49 | 1017.4 |
| 20260506171211 | 57 | 278 | 1.7 | 3.5 | 0.00 | 0.00 | 0.00 | 49 | 1017.3 |
| 20260506170708 | 57 | 336 | 1.7 | 4.3 | 0.00 | 0.00 | 0.00 | 49 | 1017.4 |
| 20260506170205 | 58 | 319 | 1.7 | 4.3 | 0.00 | 0.00 | 0.00 | 52 | 1017.5 |
| 20260506165703 | 57 | 67 | 1.7 | 5.2 | 0.00 | 0.00 | 0.00 | 52 | 1017.4 |
| 20260506165159 | 55 | 225 | 7.0 | 9.6 | 0.00 | 0.00 | 0.00 | 48 | 1017.4 |
| 20260506164656 | 58 | 228 | 3.5 | 6.1 | 0.00 | 0.00 | 0.00 | 46 | 1017.3 |
| 20260506164154 | 58 | 235 | 2.6 | 5.2 | 0.00 | 0.00 | 0.00 | 51 | 1017.3 |
| 20260506163650 | 58 | 263 | 1.7 | 2.6 | 0.00 | 0.00 | 0.00 | 53 | 1017.3 |
| 20260506163145 | 56 | 216 | 3.5 | 7.0 | 0.00 | 0.00 | 0.00 | 47 | 1017.1 |
| 20260506162641 | 55 | 340 | 0.0 | 7.8 | 0.00 | 0.00 | 0.00 | 57 | 1017.0 |
| 20260506162139 | 57 | 321 | 2.6 | 4.3 | 0.00 | 0.00 | 0.00 | 59 | 1017.0 |
| 20260506161636 | 56 | 26 | 0.9 | 5.2 | 0.00 | 0.00 | 0.00 | 57 | 1017.1 |
| 20260506161133 | 55 | 221 | 2.6 | 3.5 | 0.00 | 0.00 | 0.00 | 55 | 1016.8 |
| 20260506160630 | 56 | 230 | 1.7 | 1.7 | 0.00 | 0.00 | 0.00 | 62 | 1016.9 |
| 20260506160127 | 54 | 45 | 2.6 | 3.5 | 0.00 | 0.00 | 0.00 | 63 | 1016.7 |
| 20260506155626 | 54 | 269 | 1.7 | 3.5 | 0.00 | 0.00 | 0.00 | 62 | 1016.8 |
| 20260506155122 | 52 | 346 | 2.6 | 3.5 | 0.00 | 0.00 | 0.00 | 65 | 1016.6 |
| 20260506153219 | 52 | 349 | 2.6 | 3.5 | 0.00 | 0.00 | 0.00 | 65 | 1016.5 |
| 20260506152716 | 52 | 342 | 1.7 | 3.5 | 0.00 | 0.00 | 0.00 | 65 | 1016.4 |
| 20260506152213 | 52 | 357 | 2.6 | 2.6 | 0.00 | 0.00 | 0.00 | 67 | 1016.2 |
| 20260506151712 | 52 | 4 | 1.7 | 1.7 | 0.00 | 0.00 | 0.00 | 65 | 1016.1 |
| 20260506151209 | 51 | 337 | 0.0 | 4.3 | 0.00 | 0.00 | 0.00 | 68 | 1016.1 |
| 20260506150705 | 52 | 325 | 3.5 | 5.2 | 0.00 | 0.00 | 0.00 | 62 | 1016.3 |
| 20260506150202 | 52 | 83 | 0.9 | 3.5 | 0.00 | 0.00 | 0.00 | 65 | 1016.2 |
| 20260506145659 | 51 | 10 | 0.9 | 5.2 | 0.00 | 0.00 | 0.00 | 65 | 1016.1 |
| 20260506145155 | 50 | 358 | 2.6 | 4.3 | 0.00 | 0.00 | 0.00 | 67 | 1016.0 |
| 20260506144653 | 51 | 323 | 3.5 | 4.3 | 0.00 | 0.00 | 0.00 | 68 | 1016.0 |
| 20260506144150 | 51 | 309 | 0.0 | 2.6 | 0.00 | 0.00 | 0.00 | 69 | 1015.9 |
| 20260506143648 | 50 | 312 | 5.2 | 5.2 | 0.00 | 0.00 | 0.00 | 68 | 1015.9 |
| 20260506143145 | 50 | 328 | 2.6 | 5.2 | 0.00 | 0.00 | 0.00 | 66 | 1015.8 |
| 20260506142643 | 50 | 21 | 0.9 | 3.5 | 0.00 | 0.00 | 0.00 | 68 | 1016.0 |
| 20260506142141 | 50 | 30 | 0.9 | 3.5 | 0.00 | 0.00 | 0.00 | 69 | 1015.9 |
| 20260506141638 | 50 | 354 | 1.7 | 3.5 | 0.00 | 0.00 | 0.00 | 71 | 1016.1 |
| 20260506141137 | 50 | 314 | 3.5 | 3.5 | 0.00 | 0.00 | 0.00 | 68 | 1016.0 |
| 20260506140634 | 49 | 295 | 3.5 | 5.2 | 0.00 | 0.00 | 0.00 | 70 | 1016.1 |
| 20260506140131 | 49 | 348 | 1.7 | 3.5 | 0.00 | 0.00 | 0.00 | 71 | 1016.2 |
| 20260506135628 | 48 | 341 | 0.0 | 3.5 | 0.00 | 0.00 | 0.00 | 70 | 1016.1 |
| 20260506135124 | 47 | 331 | 1.7 | 2.6 | 0.00 | 0.00 | 0.00 | 74 | 1015.9 |
| 20260506134621 | 47 | 7 | 0.9 | 2.6 | 0.00 | 0.00 | 0.00 | 77 | 1016.0 |
| 20260506134116 | 47 | 32 | 0.9 | 1.7 | 0.00 | 0.00 | 0.00 | 80 | 1015.9 |
| 20260506133614 | 46 | 21 | 0.9 | 2.6 | 0.00 | 0.00 | 0.00 | 75 | 1015.9 |
| 20260506133111 | 47 | 49 | 0.0 | 1.7 | 0.00 | 0.00 | 0.00 | 74 | 1015.9 |
| 20260506132608 | 47 | 7 | 0.9 | 1.7 | 0.00 | 0.00 | 0.00 | 75 | 1016.2 |
| 20260506132105 | 46 | 162 | 0.0 | 1.7 | 0.00 | 0.00 | 0.00 | 75 | 1016.3 |
| 20260506131602 | 46 | 328 | 0.0 | 1.7 | 0.00 | 0.00 | 0.00 | 75 | 1016.2 |
| 20260506131059 | 46 | 37 | 2.6 | 3.5 | 0.00 | 0.00 | 0.00 | 75 | 1016.1 |
| 20260506130555 | 46 | 359 | 2.6 | 4.3 | 0.00 | 0.00 | 0.00 | 74 | 1016.0 |
| 20260506130053 | 46 | 353 | 2.6 | 3.5 | 0.00 | 0.00 | 0.00 | 75 | 1015.9 |
| 20260506125551 | 46 | 2 | 1.7 | 3.5 | 0.00 | 0.00 | 0.00 | 77 | 1015.9 |
| 20260506125049 | 46 | 354 | 3.5 | 5.2 | 0.00 | 0.00 | 0.00 | 75 | 1015.7 |
| 20260506124546 | 46 | 348 | 1.7 | 2.6 | 0.00 | 0.00 | 0.00 | 77 | 1015.5 |
| 20260506124044 | 46 | 340 | 0.9 | 4.3 | 0.00 | 0.00 | 0.00 | 76 | 1015.4 |
| 20260506123541 | 46 | 30 | 1.7 | 1.7 | 0.00 | 0.00 | 0.00 | 76 | 1015.1 |
| 20260506123040 | 46 | 5 | 2.6 | 3.5 | 0.00 | 0.00 | 0.00 | 77 | 1015.2 |
| 20260506122536 | 46 | 24 | 2.6 | 3.5 | 0.00 | 0.00 | 0.00 | 74 | 1015.0 |
| 20260506122034 | 46 | 335 | 1.7 | 3.5 | 0.00 | 0.00 | 0.00 | 74 | 1015.0 |
| 20260506121531 | 46 | 356 | 2.6 | 5.2 | 0.00 | 0.00 | 0.00 | 75 | 1014.8 |
| 20260506121027 | 45 | 30 | 0.0 | 3.5 | 0.00 | 0.00 | 0.00 | 77 | 1014.6 |
| 20260506120526 | 44 | 19 | 1.7 | 2.6 | 0.00 | 0.00 | 0.00 | 81 | 1014.7 |
| 20260506120023 | 43 | 310 | 1.7 | 1.7 | 0.00 | 0.00 | 0.00 | 81 | 1014.4 |
| 20260506115520 | 43 | 28 | 2.6 | 2.6 | 0.00 | 0.00 | 0.00 | 83 | 1014.7 |
| 20260506115019 | 43 | 335 | 0.9 | 1.7 | 0.00 | 0.00 | 0.00 | 81 | 1014.4 |
| 20260506114516 | 44 | 331 | 1.7 | 3.5 | 0.00 | 0.00 | 0.00 | 80 | 1014.3 |
| 20260506114014 | 44 | 75 | 0.9 | 1.7 | 0.00 | 0.00 | 0.00 | 81 | 1014.1 |
| 20260506113512 | 44 | 356 | 1.7 | 3.5 | 0.00 | 0.00 | 0.00 | 80 | 1013.8 |
| 20260506113009 | 44 | 17 | 1.7 | 1.7 | 0.00 | 0.00 | 0.00 | 80 | 1013.7 |
| 20260506112505 | 43 | 8 | 1.7 | 2.6 | 0.00 | 0.00 | 0.00 | 82 | 1013.7 |
| 20260506112003 | 42 | 4 | 2.6 | 3.5 | 0.00 | 0.00 | 0.00 | 81 | 1013.4 |
| 20260506111501 | 42 | 349 | 0.9 | 1.7 | 0.00 | 0.00 | 0.00 | 84 | 1013.5 |
| 20260506110957 | 41 | 346 | 1.7 | 3.5 | 0.00 | 0.00 | 0.00 | 85 | 1013.3 |
| 20260506110455 | 40 | 24 | 1.7 | 1.7 | 0.00 | 0.00 | 0.00 | 88 | 1013.5 |
| 20260506105951 | 40 | 358 | 0.9 | 2.6 | 0.00 | 0.00 | 0.00 | 90 | 1013.4 |
| 20260506105448 | 39 | 359 | 0.0 | 1.7 | 0.00 | 0.00 | 0.00 | 94 | 1013.4 |
| 20260506104945 | 39 | 17 | 0.0 | 1.7 | 0.00 | 0.00 | 0.00 | 97 | 1013.5 |
| 20260506104443 | 39 | 332 | 1.7 | 1.7 | 0.00 | 0.00 | 0.00 | 99 | 1013.0 |
| 20260506103942 | 39 | 10 | 1.7 | 3.5 | 0.00 | 0.00 | 0.00 | 99 | 1012.9 |
| 20260506103438 | 39 | 32 | 1.7 | 1.7 | 0.00 | 0.00 | 0.00 | 99 | 1013.1 |
| 20260506102935 | 39 | 19 | 1.7 | 2.6 | 0.00 | 0.00 | 0.00 | 99 | 1012.9 |
| 20260506102433 | 39 | 23 | 1.7 | 1.7 | 0.00 | 0.00 | 0.00 | 99 | 1013.1 |
| 20260506101930 | 39 | 30 | 0.0 | 1.7 | 0.00 | 0.00 | 0.00 | 99 | 1013.2 |
| 20260506101426 | 39 | 25 | 0.0 | 0.9 | 0.00 | 0.00 | 0.00 | 99 | 1013.4 |
| 20260506100924 | 39 | 338 | 0.0 | 1.7 | 0.00 | 0.00 | 0.00 | 99 | 1013.2 |
| 20260506100422 | 39 | 130 | 0.0 | 0.9 | 0.00 | 0.00 | 0.00 | 99 | 1013.3 |
| 20260506095920 | 39 | 119 | 0.0 | 0.9 | 0.00 | 0.00 | 0.00 | 99 | 1013.3 |
| 20260506095418 | 38 | 16 | 1.7 | 1.7 | 0.00 | 0.00 | 0.00 | 99 | 1013.0 |
| 20260506094914 | 38 | 10 | 0.0 | 1.7 | 0.00 | 0.00 | 0.00 | 98 | 1013.0 |
| 20260506094413 | 38 | 65 | 0.0 | 1.7 | 0.00 | 0.00 | 0.00 | 98 | 1012.8 |
| 20260506093910 | 38 | 27 | 1.7 | 1.7 | 0.00 | 0.00 | 0.00 | 98 | 1012.6 |
| 20260506093408 | 38 | 60 | 0.0 | 0.9 | 0.00 | 0.00 | 0.00 | 98 | 1012.6 |
| 20260506092905 | 38 | 44 | 0.0 | 0.9 | 0.00 | 0.00 | 0.00 | 98 | 1012.5 |
| 20260506092403 | 38 | 82 | 0.0 | 0.9 | 0.00 | 0.00 | 0.00 | 98 | 1012.1 |
| 20260506091859 | 39 | 135 | 0.0 | 1.7 | 0.00 | 0.00 | 0.00 | 98 | 1012.3 |
| 20260506091358 | 39 | 70 | 0.0 | 1.7 | 0.00 | 0.00 | 0.00 | 98 | 1012.4 |
| 20260506090854 | 39 | 359 | 0.9 | 1.7 | 0.00 | 0.00 | 0.00 | 98 | 1012.5 |
| 20260506090352 | 40 | 25 | 0.9 | 1.7 | 0.00 | 0.00 | 0.00 | 98 | 1012.6 |
| 20260506085849 | 40 | 19 | 1.7 | 1.7 | 0.00 | 0.00 | 0.00 | 98 | 1012.9 |
| 20260506085345 | 40 | 29 | 0.0 | 1.7 | 0.00 | 0.00 | 0.00 | 98 | 1013.0 |
| 20260506084842 | 40 | 44 | 0.0 | 1.7 | 0.00 | 0.00 | 0.00 | 98 | 1012.8 |
| 20260506084338 | 40 | 44 | 0.0 | 1.7 | 0.00 | 0.00 | 0.00 | 98 | 1013.1 |
| 20260506083835 | 40 | 53 | 0.0 | 1.7 | 0.00 | 0.00 | 0.00 | 98 | 1013.0 |
| 20260506083332 | 40 | 26 | 0.0 | 1.7 | 0.00 | 0.00 | 0.00 | 97 | 1012.9 |
| 20260506082829 | 40 | 29 | 0.0 | 0.0 | 0.00 | 0.00 | 0.00 | 97 | 1012.7 |
| 20260506082326 | 40 | 22 | 0.0 | 0.9 | 0.00 | 0.00 | 0.00 | 97 | 1012.6 |
| 20260506081822 | 40 | 16 | 0.9 | 0.9 | 0.00 | 0.00 | 0.00 | 97 | 1012.8 |
| 20260506081321 | 41 | 341 | 0.0 | 0.0 | 0.00 | 0.00 | 0.00 | 97 | 1012.7 |
| 20260506080818 | 41 | 32 | 0.0 | 0.9 | 0.00 | 0.00 | 0.00 | 97 | 1012.5 |
| 20260506080314 | 41 | 0 | 0.0 | 0.9 | 0.00 | 0.00 | 0.00 | 97 | 1012.6 |
| 20260506073258 | 42 | 27 | 0.0 | 0.9 | 0.00 | 0.00 | 0.00 | 96 | 1012.3 |
| 20260506072755 | 42 | 38 | 0.9 | 1.7 | 0.00 | 0.00 | 0.00 | 96 | 1012.1 |
| 20260506072253 | 42 | 76 | 0.0 | 1.7 | 0.00 | 0.00 | 0.00 | 96 | 1012.4 |
| 20260506071750 | 43 | 24 | 0.9 | 1.7 | 0.00 | 0.00 | 0.00 | 96 | 1012.2 |
| 20260506071248 | 43 | 37 | 0.0 | 1.7 | 0.00 | 0.00 | 0.00 | 96 | 1012.3 |
| 20260506070744 | 43 | 11 | 0.0 | 0.9 | 0.00 | 0.00 | 0.00 | 96 | 1012.4 |
| 20260506070241 | 43 | 14 | 0.9 | 1.7 | 0.00 | 0.00 | 0.00 | 96 | 1012.5 |
| 20260506062218 | 42 | 3 | 0.9 | 0.9 | 0.00 | 0.00 | 0.00 | 94 | 1012.5 |
| 20260506061714 | 43 | 66 | 0.0 | 1.7 | 0.00 | 0.00 | 0.00 | 94 | 1012.0 |
| 20260506061211 | 43 | 26 | 0.9 | 1.7 | 0.00 | 0.00 | 0.00 | 94 | 1012.1 |
| 20260506060710 | 43 | 34 | 0.0 | 0.9 | 0.00 | 0.00 | 0.00 | 93 | 1012.1 |
| 20260506060206 | 43 | 32 | 0.0 | 0.9 | 0.00 | 0.00 | 0.00 | 93 | 1012.2 |
| 20260506051139 | 46 | 21 | 0.0 | 0.9 | 0.00 | 0.00 | 0.00 | 89 | 1012.6 |
| 20260506050637 | 46 | 308 | 0.0 | 0.0 | 0.00 | 0.00 | 0.00 | 89 | 1012.4 |
| 20260506050134 | 47 | 69 | 0.0 | 1.7 | 0.00 | 0.00 | 0.00 | 89 | 1012.1 |
| 20260506045127 | 46 | 227 | 0.0 | 0.9 | 0.00 | 0.06 | 0.06 | 87 | 1012.3 |
| 20260506044625 | 47 | 48 | 0.9 | 0.9 | 0.00 | 0.06 | 0.06 | 89 | 1012.3 |
| 20260506044121 | 47 | 7 | 0.0 | 1.7 | 0.00 | 0.06 | 0.06 | 88 | 1011.9 |
| 20260506043619 | 48 | 333 | 0.9 | 0.9 | 0.00 | 0.06 | 0.06 | 85 | 1012.1 |
| 20260506043117 | 47 | 269 | 0.0 | 1.7 | 0.00 | 0.06 | 0.06 | 84 | 1012.2 |
| 20260506042615 | 48 | 69 | 0.9 | 0.9 | 0.00 | 0.06 | 0.06 | 85 | 1012.0 |
| 20260506042113 | 48 | 354 | 0.0 | 1.7 | 0.00 | 0.06 | 0.06 | 84 | 1012.2 |
| 20260506041612 | 49 | 56 | 0.9 | 1.7 | 0.00 | 0.06 | 0.06 | 81 | 1012.0 |
| 20260506041108 | 49 | 233 | 0.0 | 0.9 | 0.00 | 0.06 | 0.06 | 73 | 1011.9 |
| 20260506040606 | 49 | 0 | 0.0 | 2.6 | 0.00 | 0.06 | 0.06 | 72 | 1012.2 |
| 20260506035559 | 49 | 110 | 1.7 | 1.7 | 0.00 | 0.06 | 0.06 | 77 | 1012.5 |
| 20260506035055 | 48 | 13 | 1.7 | 4.3 | 0.00 | 0.06 | 0.06 | 79 | 1012.5 |
| 20260506034553 | 47 | 72 | 0.9 | 2.6 | 0.00 | 0.06 | 0.06 | 91 | 1012.7 |
| 20260506034050 | 48 | 59 | 0.9 | 1.7 | 0.00 | 0.06 | 0.06 | 91 | 1012.5 |
| 20260506033547 | 48 | 343 | 0.0 | 1.7 | 0.00 | 0.06 | 0.06 | 90 | 1012.5 |
| 20260506033044 | 48 | 184 | 0.9 | 0.9 | 0.00 | 0.06 | 0.06 | 90 | 1012.5 |
| 20260506032541 | 48 | 13 | 0.0 | 0.0 | 0.00 | 0.06 | 0.06 | 89 | 1012.5 |
| 20260506032038 | 48 | 91 | 0.0 | 1.7 | 0.00 | 0.06 | 0.06 | 91 | 1012.6 |
| 20260506031536 | 48 | 37 | 1.7 | 1.7 | 0.00 | 0.06 | 0.06 | 91 | 1012.7 |
| 20260506031032 | 48 | 58 | 1.7 | 1.7 | 0.00 | 0.06 | 0.06 | 90 | 1012.7 |
| 20260506030531 | 48 | 55 | 0.0 | 0.0 | 0.00 | 0.06 | 0.06 | 92 | 1013.0 |
| 20260506030028 | 48 | 32 | 0.0 | 0.0 | 0.00 | 0.06 | 0.06 | 91 | 1012.7 |
| 20260506025525 | 48 | 44 | 0.0 | 0.0 | 0.00 | 0.06 | 0.06 | 90 | 1012.7 |
| 20260506025020 | 47 | 60 | 0.0 | 0.0 | 0.00 | 0.06 | 0.06 | 90 | 1012.7 |
| 20260506024518 | 47 | 60 | 0.0 | 0.0 | 0.00 | 0.06 | 0.06 | 91 | 1012.5 |
| 20260506024014 | 48 | 60 | 0.0 | 0.0 | 0.00 | 0.06 | 0.06 | 92 | 1012.3 |
| 20260506023510 | 47 | 60 | 0.0 | 0.0 | 0.00 | 0.06 | 0.06 | 91 | 1012.3 |
| 20260506023008 | 48 | 60 | 0.0 | 0.0 | 0.00 | 0.06 | 0.06 | 92 | 1012.1 |
| 20260506022505 | 48 | 60 | 0.0 | 0.0 | 0.00 | 0.06 | 0.06 | 91 | 1011.9 |
| 20260506022002 | 48 | 29 | 0.0 | 0.9 | 0.00 | 0.06 | 0.06 | 90 | 1011.8 |
| 20260506021500 | 47 | 38 | 0.0 | 0.0 | 0.00 | 0.06 | 0.06 | 90 | 1011.7 |
| 20260506020957 | 48 | 38 | 0.0 | 0.0 | 0.00 | 0.06 | 0.06 | 92 | 1011.4 |
| 20260506020454 | 47 | 55 | 0.0 | 0.0 | 0.00 | 0.06 | 0.06 | 91 | 1011.5 |
| 20260506015951 | 48 | 55 | 0.0 | 0.0 | 0.00 | 0.06 | 0.06 | 91 | 1011.4 |